Year,Month,Day,Hour,Minute,Value (Times are PST for temperature in C)
2009,08,18,00,00,16.40
2009,08,18,00,01,16.40
2009,08,18,00,02,16.40
2009,08,18,00,03,16.40
2009,08,18,00,04,16.40
2009,08,18,00,05,16.40
2009,08,18,00,06,16.30
2009,08,18,00,07,16.30
2009,08,18,00,08,16.30
2009,08,18,00,09,16.30
2009,08,18,00,10,16.30
2009,08,18,00,11,16.20
2009,08,18,00,12,16.20
2009,08,18,00,13,16.20
2009,08,18,00,14,16.20
2009,08,18,00,15,16.20
2009,08,18,00,16,16.20
2009,08,18,00,17,16.20
2009,08,18,00,18,16.30
2009,08,18,00,19,16.30
2009,08,18,00,20,16.30
2009,08,18,00,21,16.30
2009,08,18,00,22,16.30
2009,08,18,00,23,16.30
2009,08,18,00,24,16.30
2009,08,18,00,25,16.30
2009,08,18,00,26,16.30
2009,08,18,00,27,16.30
2009,08,18,00,28,16.30
2009,08,18,00,29,16.30
2009,08,18,00,30,16.30
2009,08,18,00,31,16.30
2009,08,18,00,32,16.30
2009,08,18,00,33,16.20
2009,08,18,00,34,16.20
2009,08,18,00,35,16.20
2009,08,18,00,36,16.20
2009,08,18,00,37,16.10
2009,08,18,00,38,16.10
2009,08,18,00,39,16.10
2009,08,18,00,40,16.10
2009,08,18,00,41,16.10
2009,08,18,00,42,16.10
2009,08,18,00,43,16.10
2009,08,18,00,44,16.10
2009,08,18,00,45,16.10
2009,08,18,00,46,16.10
2009,08,18,00,47,16.10
2009,08,18,00,48,16.10
2009,08,18,00,49,16.10
2009,08,18,00,50,16.10
2009,08,18,00,51,16.10
2009,08,18,00,52,16.10
2009,08,18,00,53,16.10
2009,08,18,00,54,16.10
2009,08,18,00,55,16.00
2009,08,18,00,56,15.90
2009,08,18,00,57,15.90
2009,08,18,00,58,15.80
2009,08,18,00,59,15.80
2009,08,18,01,00,15.80
2009,08,18,01,01,15.80
2009,08,18,01,02,15.80
2009,08,18,01,03,15.80
2009,08,18,01,04,15.80
2009,08,18,01,05,15.80
2009,08,18,01,06,15.80
2009,08,18,01,07,15.80
2009,08,18,01,08,15.80
2009,08,18,01,09,15.80
2009,08,18,01,10,15.80
2009,08,18,01,11,15.80
2009,08,18,01,12,15.80
2009,08,18,01,13,15.80
2009,08,18,01,14,15.80
2009,08,18,01,15,15.80
2009,08,18,01,16,15.80
2009,08,18,01,17,15.80
2009,08,18,01,18,15.80
2009,08,18,01,19,15.80
2009,08,18,01,20,15.80
2009,08,18,01,21,15.80
2009,08,18,01,22,15.70
2009,08,18,01,23,15.70
2009,08,18,01,24,15.70
2009,08,18,01,25,15.70
2009,08,18,01,26,15.70
2009,08,18,01,27,15.70
2009,08,18,01,28,15.70
2009,08,18,01,29,15.70
2009,08,18,01,30,15.70
2009,08,18,01,31,15.60
2009,08,18,01,32,15.60
2009,08,18,01,33,15.60
2009,08,18,01,34,15.60
2009,08,18,01,35,15.60
2009,08,18,01,36,15.60
2009,08,18,01,37,15.60
2009,08,18,01,38,15.60
2009,08,18,01,39,15.60
2009,08,18,01,40,15.60
2009,08,18,01,41,15.50
2009,08,18,01,42,15.50
2009,08,18,01,43,15.50
2009,08,18,01,44,15.50
2009,08,18,01,45,15.50
2009,08,18,01,46,15.50
2009,08,18,01,47,15.50
2009,08,18,01,48,15.50
2009,08,18,01,49,15.50
2009,08,18,01,50,15.60
2009,08,18,01,51,15.60
2009,08,18,01,52,15.60
2009,08,18,01,53,15.60
2009,08,18,01,54,15.60
2009,08,18,01,55,15.60
2009,08,18,01,56,15.60
2009,08,18,01,57,15.60
2009,08,18,01,58,15.60
2009,08,18,01,59,15.60
2009,08,18,02,00,15.60
2009,08,18,02,01,15.60
2009,08,18,02,02,15.60
2009,08,18,02,03,15.60
2009,08,18,02,04,15.60
2009,08,18,02,05,15.60
2009,08,18,02,06,15.60
2009,08,18,02,07,15.60
2009,08,18,02,08,15.60
2009,08,18,02,09,15.60
2009,08,18,02,10,15.60
2009,08,18,02,11,15.60
2009,08,18,02,12,15.60
2009,08,18,02,13,15.60
2009,08,18,02,14,15.60
2009,08,18,02,15,15.60
2009,08,18,02,16,15.60
2009,08,18,02,17,15.60
2009,08,18,02,18,15.60
2009,08,18,02,19,15.70
2009,08,18,02,20,15.70
2009,08,18,02,21,15.70
2009,08,18,02,22,15.70
2009,08,18,02,23,15.70
2009,08,18,02,24,15.80
2009,08,18,02,25,15.80
2009,08,18,02,26,15.80
2009,08,18,02,27,15.80
2009,08,18,02,28,15.80
2009,08,18,02,29,15.80
2009,08,18,02,30,15.80
2009,08,18,02,31,15.80
2009,08,18,02,32,15.80
2009,08,18,02,33,15.80
2009,08,18,02,34,15.80
2009,08,18,02,35,15.80
2009,08,18,02,36,15.80
2009,08,18,02,37,15.80
2009,08,18,02,38,15.80
2009,08,18,02,39,15.80
2009,08,18,02,40,15.80
2009,08,18,02,41,15.80
2009,08,18,02,42,15.80
2009,08,18,02,43,15.80
2009,08,18,02,44,15.80
2009,08,18,02,45,15.70
2009,08,18,02,46,15.70
2009,08,18,02,47,15.70
2009,08,18,02,48,15.60
2009,08,18,02,49,15.60
2009,08,18,02,50,15.50
2009,08,18,02,51,15.50
2009,08,18,02,52,15.50
2009,08,18,02,53,15.40
2009,08,18,02,54,15.30
2009,08,18,02,55,15.30
2009,08,18,02,56,15.20
2009,08,18,02,57,15.20
2009,08,18,02,58,15.20
2009,08,18,02,59,15.10
2009,08,18,03,00,15.10
2009,08,18,03,01,15.10
2009,08,18,03,02,15.10
2009,08,18,03,03,15.10
2009,08,18,03,04,15.10
2009,08,18,03,05,15.10
2009,08,18,03,06,15.10
2009,08,18,03,07,15.10
2009,08,18,03,08,15.10
2009,08,18,03,09,15.00
2009,08,18,03,10,15.00
2009,08,18,03,11,15.00
2009,08,18,03,12,15.00
2009,08,18,03,13,15.00
2009,08,18,03,14,15.00
2009,08,18,03,15,15.00
2009,08,18,03,16,15.00
2009,08,18,03,17,14.90
2009,08,18,03,18,14.80
2009,08,18,03,19,14.70
2009,08,18,03,20,14.70
2009,08,18,03,21,14.60
2009,08,18,03,22,14.60
2009,08,18,03,23,14.60
2009,08,18,03,24,14.60
2009,08,18,03,25,14.60
2009,08,18,03,26,14.60
2009,08,18,03,27,14.60
2009,08,18,03,28,14.60
2009,08,18,03,29,14.60
2009,08,18,03,30,14.70
2009,08,18,03,31,14.70
2009,08,18,03,32,14.70
2009,08,18,03,33,14.70
2009,08,18,03,34,14.60
2009,08,18,03,35,14.60
2009,08,18,03,36,14.60
2009,08,18,03,37,14.60
2009,08,18,03,38,14.60
2009,08,18,03,39,14.60
2009,08,18,03,40,14.60
2009,08,18,03,41,14.60
2009,08,18,03,42,14.60
2009,08,18,03,43,14.60
2009,08,18,03,44,14.50
2009,08,18,03,45,14.60
2009,08,18,03,46,14.60
2009,08,18,03,47,14.60
2009,08,18,03,48,14.60
2009,08,18,03,49,14.60
2009,08,18,03,50,14.50
2009,08,18,03,51,14.50
2009,08,18,03,52,14.50
2009,08,18,03,53,14.50
2009,08,18,03,54,14.60
2009,08,18,03,55,14.60
2009,08,18,03,56,14.60
2009,08,18,03,57,14.50
2009,08,18,03,58,14.50
2009,08,18,03,59,14.50
2009,08,18,04,00,14.50
2009,08,18,04,01,14.50
2009,08,18,04,02,14.50
2009,08,18,04,03,14.40
2009,08,18,04,04,14.40
2009,08,18,04,05,14.40
2009,08,18,04,06,14.30
2009,08,18,04,07,14.30
2009,08,18,04,08,14.30
2009,08,18,04,09,14.30
2009,08,18,04,10,14.30
2009,08,18,04,11,14.30
2009,08,18,04,12,14.30
2009,08,18,04,13,14.30
2009,08,18,04,14,14.30
2009,08,18,04,15,14.30
2009,08,18,04,16,14.30
2009,08,18,04,17,14.30
2009,08,18,04,18,14.30
2009,08,18,04,19,14.30
2009,08,18,04,20,14.30
2009,08,18,04,21,14.30
2009,08,18,04,22,14.20
2009,08,18,04,23,14.20
2009,08,18,04,24,14.20
2009,08,18,04,25,14.20
2009,08,18,04,26,14.20
2009,08,18,04,27,14.20
2009,08,18,04,28,14.10
2009,08,18,04,29,14.10
2009,08,18,04,30,14.10
2009,08,18,04,31,14.10
2009,08,18,04,32,14.10
2009,08,18,04,33,14.00
2009,08,18,04,34,14.00
2009,08,18,04,35,14.00
2009,08,18,04,36,13.90
2009,08,18,04,37,13.90
2009,08,18,04,38,13.90
2009,08,18,04,39,13.90
2009,08,18,04,40,13.80
2009,08,18,04,41,13.80
2009,08,18,04,42,13.80
2009,08,18,04,43,13.80
2009,08,18,04,44,13.80
2009,08,18,04,45,13.70
2009,08,18,04,46,13.70
2009,08,18,04,47,13.70
2009,08,18,04,48,13.70
2009,08,18,04,49,13.70
2009,08,18,04,50,13.70
2009,08,18,04,51,13.70
2009,08,18,04,52,13.70
2009,08,18,04,53,13.70
2009,08,18,04,54,13.70
2009,08,18,04,55,13.70
2009,08,18,04,56,13.70
2009,08,18,04,57,13.70
2009,08,18,04,58,13.70
2009,08,18,04,59,13.70
2009,08,18,05,00,13.70
2009,08,18,05,01,13.60
2009,08,18,05,02,13.60
2009,08,18,05,03,13.60
2009,08,18,05,04,13.60
2009,08,18,05,05,13.60
2009,08,18,05,06,13.60
2009,08,18,05,07,13.60
2009,08,18,05,08,13.60
2009,08,18,05,09,13.60
2009,08,18,05,10,13.60
2009,08,18,05,11,13.60
2009,08,18,05,12,13.60
2009,08,18,05,13,13.50
2009,08,18,05,14,13.50
2009,08,18,05,15,13.50
2009,08,18,05,16,13.50
2009,08,18,05,17,13.50
2009,08,18,05,18,13.50
2009,08,18,05,19,13.50
2009,08,18,05,20,13.50
2009,08,18,05,21,13.50
2009,08,18,05,22,13.50
2009,08,18,05,23,13.50
2009,08,18,05,24,13.50
2009,08,18,05,25,13.40
2009,08,18,05,26,13.40
2009,08,18,05,27,13.40
2009,08,18,05,28,13.40
2009,08,18,05,29,13.40
2009,08,18,05,30,13.40
2009,08,18,05,31,13.40
2009,08,18,05,32,13.40
2009,08,18,05,33,13.40
2009,08,18,05,34,13.40
2009,08,18,05,35,13.40
2009,08,18,05,36,13.40
2009,08,18,05,37,13.30
2009,08,18,05,38,13.30
2009,08,18,05,39,13.30
2009,08,18,05,40,13.30
2009,08,18,05,41,13.30
2009,08,18,05,42,13.30
2009,08,18,05,43,13.30
2009,08,18,05,44,13.30
2009,08,18,05,45,13.30
2009,08,18,05,46,13.30
2009,08,18,05,47,13.30
2009,08,18,05,48,13.30
2009,08,18,05,49,13.30
2009,08,18,05,50,13.30
2009,08,18,05,51,13.30
2009,08,18,05,52,13.20
2009,08,18,05,53,13.20
2009,08,18,05,54,13.20
2009,08,18,05,55,13.20
2009,08,18,05,56,13.20
2009,08,18,05,57,13.30
2009,08,18,05,58,13.30
2009,08,18,05,59,13.30
2009,08,18,06,00,13.20
2009,08,18,06,01,13.20
2009,08,18,06,02,13.20
2009,08,18,06,03,13.20
2009,08,18,06,04,13.10
2009,08,18,06,05,13.10
2009,08,18,06,06,13.10
2009,08,18,06,07,13.10
2009,08,18,06,08,13.00
2009,08,18,06,09,13.00
2009,08,18,06,10,13.00
2009,08,18,06,11,12.90
2009,08,18,06,12,12.90
2009,08,18,06,13,12.90
2009,08,18,06,14,12.90
2009,08,18,06,15,12.90
2009,08,18,06,16,12.90
2009,08,18,06,17,12.80
2009,08,18,06,18,12.80
2009,08,18,06,19,12.80
2009,08,18,06,20,12.80
2009,08,18,06,21,12.80
2009,08,18,06,22,12.80
2009,08,18,06,23,12.80
2009,08,18,06,24,12.80
2009,08,18,06,25,12.80
2009,08,18,06,26,12.90
2009,08,18,06,27,12.90
2009,08,18,06,28,12.90
2009,08,18,06,29,12.90
2009,08,18,06,30,12.80
2009,08,18,06,31,12.80
2009,08,18,06,32,12.80
2009,08,18,06,33,12.80
2009,08,18,06,34,12.80
2009,08,18,06,35,12.80
2009,08,18,06,36,12.80
2009,08,18,06,37,12.80
2009,08,18,06,38,12.80
2009,08,18,06,39,12.80
2009,08,18,06,40,12.80
2009,08,18,06,41,12.90
2009,08,18,06,42,12.90
2009,08,18,06,43,12.90
2009,08,18,06,44,12.80
2009,08,18,06,45,12.80
2009,08,18,06,46,12.80
2009,08,18,06,47,12.80
2009,08,18,06,48,12.80
2009,08,18,06,49,12.80
2009,08,18,06,50,12.80
2009,08,18,06,51,12.80
2009,08,18,06,52,12.90
2009,08,18,06,53,12.90
2009,08,18,06,54,12.90
2009,08,18,06,55,13.00
2009,08,18,06,56,13.00
2009,08,18,06,57,13.00
2009,08,18,06,58,13.00
2009,08,18,06,59,13.10
2009,08,18,07,00,13.10
2009,08,18,07,01,13.10
2009,08,18,07,02,13.10
2009,08,18,07,03,13.10
2009,08,18,07,04,13.20
2009,08,18,07,05,13.20
2009,08,18,07,06,13.20
2009,08,18,07,07,13.20
2009,08,18,07,08,13.30
2009,08,18,07,09,13.30
2009,08,18,07,10,13.30
2009,08,18,07,11,13.30
2009,08,18,07,12,13.30
2009,08,18,07,13,13.40
2009,08,18,07,14,13.40
2009,08,18,07,15,13.40
2009,08,18,07,16,13.40
2009,08,18,07,17,13.40
2009,08,18,07,18,13.40
2009,08,18,07,19,13.40
2009,08,18,07,20,13.40
2009,08,18,07,21,13.40
2009,08,18,07,22,13.40
2009,08,18,07,23,13.40
2009,08,18,07,24,13.40
2009,08,18,07,25,13.50
2009,08,18,07,26,13.50
2009,08,18,07,27,13.50
2009,08,18,07,28,13.60
2009,08,18,07,29,13.70
2009,08,18,07,30,13.70
2009,08,18,07,31,13.70
2009,08,18,07,32,13.80
2009,08,18,07,33,13.80
2009,08,18,07,34,13.90
2009,08,18,07,35,14.00
2009,08,18,07,36,14.00
2009,08,18,07,37,14.10
2009,08,18,07,38,14.20
2009,08,18,07,39,14.20
2009,08,18,07,40,14.20
2009,08,18,07,41,14.30
2009,08,18,07,42,14.40
2009,08,18,07,43,14.50
2009,08,18,07,44,14.50
2009,08,18,07,45,14.60
2009,08,18,07,46,14.70
2009,08,18,07,47,14.80
2009,08,18,07,48,14.80
2009,08,18,07,49,14.90
2009,08,18,07,50,15.00
2009,08,18,07,51,15.10
2009,08,18,07,52,15.20
2009,08,18,07,53,15.20
2009,08,18,07,54,15.30
2009,08,18,07,55,15.30
2009,08,18,07,56,15.30
2009,08,18,07,57,15.40
2009,08,18,07,58,15.50
2009,08,18,07,59,15.50
2009,08,18,08,00,15.60
2009,08,18,08,01,15.60
2009,08,18,08,02,15.70
2009,08,18,08,03,15.80
2009,08,18,08,04,15.80
2009,08,18,08,05,15.90
2009,08,18,08,06,16.00
2009,08,18,08,07,16.10
2009,08,18,08,08,16.10
2009,08,18,08,09,16.20
2009,08,18,08,10,16.20
2009,08,18,08,11,16.30
2009,08,18,08,12,16.40
2009,08,18,08,13,16.40
2009,08,18,08,14,16.50
2009,08,18,08,15,16.60
2009,08,18,08,16,16.70
2009,08,18,08,17,16.80
2009,08,18,08,18,16.80
2009,08,18,08,19,16.90
2009,08,18,08,20,16.90
2009,08,18,08,21,17.00
2009,08,18,08,22,17.20
2009,08,18,08,23,17.30
2009,08,18,08,24,17.30
2009,08,18,08,25,17.40
2009,08,18,08,26,17.40
2009,08,18,08,27,17.40
2009,08,18,08,28,17.40
2009,08,18,08,29,17.50
2009,08,18,08,30,17.50
2009,08,18,08,31,17.50
2009,08,18,08,32,17.50
2009,08,18,08,33,17.60
2009,08,18,08,34,17.70
2009,08,18,08,35,17.70
2009,08,18,08,36,17.70
2009,08,18,08,37,17.80
2009,08,18,08,38,17.80
2009,08,18,08,39,17.90
2009,08,18,08,40,18.00
2009,08,18,08,41,18.10
2009,08,18,08,42,18.20
2009,08,18,08,43,18.30
2009,08,18,08,44,18.30
2009,08,18,08,45,18.40
2009,08,18,08,46,18.50
2009,08,18,08,47,18.60
2009,08,18,08,48,18.60
2009,08,18,08,49,18.70
2009,08,18,08,50,18.80
2009,08,18,08,51,18.80
2009,08,18,08,52,18.90
2009,08,18,08,53,18.90
2009,08,18,08,54,19.00
2009,08,18,08,55,19.10
2009,08,18,08,56,19.10
2009,08,18,08,57,19.10
2009,08,18,08,58,19.20
2009,08,18,08,59,19.20
2009,08,18,09,00,19.20
2009,08,18,09,01,19.30
2009,08,18,09,02,19.40
2009,08,18,09,03,19.50
2009,08,18,09,04,19.60
2009,08,18,09,05,19.70
2009,08,18,09,06,19.80
2009,08,18,09,07,19.70
2009,08,18,09,08,19.70
2009,08,18,09,09,19.60
2009,08,18,09,10,19.60
2009,08,18,09,11,19.60
2009,08,18,09,12,19.70
2009,08,18,09,13,19.70
2009,08,18,09,14,19.70
2009,08,18,09,15,19.80
2009,08,18,09,16,19.80
2009,08,18,09,17,19.90
2009,08,18,09,18,19.90
2009,08,18,09,19,20.00
2009,08,18,09,20,20.10
2009,08,18,09,21,20.20
2009,08,18,09,22,20.30
2009,08,18,09,23,20.40
2009,08,18,09,24,20.40
2009,08,18,09,25,20.50
2009,08,18,09,26,20.60
2009,08,18,09,27,20.60
2009,08,18,09,28,20.60
2009,08,18,09,29,20.60
2009,08,18,09,30,20.60
2009,08,18,09,31,20.70
2009,08,18,09,32,20.70
2009,08,18,09,33,20.70
2009,08,18,09,34,20.80
2009,08,18,09,35,20.80
2009,08,18,09,36,20.90
2009,08,18,09,37,20.90
2009,08,18,09,38,20.90
2009,08,18,09,39,20.90
2009,08,18,09,40,21.00
2009,08,18,09,41,21.00
2009,08,18,09,42,21.00
2009,08,18,09,43,21.00
2009,08,18,09,44,21.00
2009,08,18,09,45,20.90
2009,08,18,09,46,20.80
2009,08,18,09,47,20.80
2009,08,18,09,48,20.80
2009,08,18,09,49,20.80
2009,08,18,09,50,20.70
2009,08,18,09,51,20.70
2009,08,18,09,52,20.70
2009,08,18,09,53,20.80
2009,08,18,09,54,20.90
2009,08,18,09,55,21.00
2009,08,18,09,56,21.20
2009,08,18,09,57,21.30
2009,08,18,09,58,21.30
2009,08,18,09,59,21.30
2009,08,18,10,00,21.40
2009,08,18,10,01,21.40
2009,08,18,10,02,21.60
2009,08,18,10,03,21.60
2009,08,18,10,04,21.60
2009,08,18,10,05,21.70
2009,08,18,10,06,21.70
2009,08,18,10,07,21.70
2009,08,18,10,08,21.60
2009,08,18,10,09,21.60
2009,08,18,10,10,21.60
2009,08,18,10,11,21.60
2009,08,18,10,12,21.60
2009,08,18,10,13,21.70
2009,08,18,10,14,21.80
2009,08,18,10,15,22.00
2009,08,18,10,16,22.00
2009,08,18,10,17,22.10
2009,08,18,10,18,22.10
2009,08,18,10,19,22.10
2009,08,18,10,20,22.10
2009,08,18,10,21,22.00
2009,08,18,10,22,22.00
2009,08,18,10,23,22.00
2009,08,18,10,24,22.00
2009,08,18,10,25,22.10
2009,08,18,10,26,22.10
2009,08,18,10,27,22.10
2009,08,18,10,28,22.10
2009,08,18,10,29,22.10
2009,08,18,10,30,22.20
2009,08,18,10,31,22.20
2009,08,18,10,32,22.30
2009,08,18,10,33,22.40
2009,08,18,10,34,22.40
2009,08,18,10,35,22.50
2009,08,18,10,36,22.50
2009,08,18,10,37,22.60
2009,08,18,10,38,22.80
2009,08,18,10,39,22.80
2009,08,18,10,40,22.80
2009,08,18,10,41,22.80
2009,08,18,10,42,22.80
2009,08,18,10,43,22.80
2009,08,18,10,44,22.90
2009,08,18,10,45,22.80
2009,08,18,10,46,22.80
2009,08,18,10,47,22.80
2009,08,18,10,48,22.80
2009,08,18,10,49,22.80
2009,08,18,10,50,22.80
2009,08,18,10,51,22.80
2009,08,18,10,52,22.70
2009,08,18,10,53,22.70
2009,08,18,10,54,22.70
2009,08,18,10,55,22.70
2009,08,18,10,56,22.80
2009,08,18,10,57,22.90
2009,08,18,10,58,22.90
2009,08,18,10,59,22.90
2009,08,18,11,00,23.00
2009,08,18,11,01,23.10
2009,08,18,11,02,23.10
2009,08,18,11,03,23.10
2009,08,18,11,04,23.20
2009,08,18,11,05,23.10
2009,08,18,11,06,23.10
2009,08,18,11,07,23.00
2009,08,18,11,08,22.90
2009,08,18,11,09,22.70
2009,08,18,11,10,22.50
2009,08,18,11,11,22.40
2009,08,18,11,12,22.30
2009,08,18,11,13,22.20
2009,08,18,11,14,22.20
2009,08,18,11,15,22.20
2009,08,18,11,16,22.30
2009,08,18,11,17,22.20
2009,08,18,11,18,22.30
2009,08,18,11,19,22.40
2009,08,18,11,20,22.50
2009,08,18,11,21,22.70
2009,08,18,11,22,22.80
2009,08,18,11,23,22.90
2009,08,18,11,24,23.10
2009,08,18,11,25,23.20
2009,08,18,11,26,23.20
2009,08,18,11,27,23.30
2009,08,18,11,28,23.30
2009,08,18,11,29,23.30
2009,08,18,11,30,23.30
2009,08,18,11,31,23.30
2009,08,18,11,32,23.30
2009,08,18,11,33,23.30
2009,08,18,11,34,23.30
2009,08,18,11,35,23.30
2009,08,18,11,36,23.30
2009,08,18,11,37,23.30
2009,08,18,11,38,23.30
2009,08,18,11,39,23.30
2009,08,18,11,40,23.30
2009,08,18,11,41,23.30
2009,08,18,11,42,23.30
2009,08,18,11,43,23.20
2009,08,18,11,44,23.20
2009,08,18,11,45,23.10
2009,08,18,11,46,23.10
2009,08,18,11,47,23.10
2009,08,18,11,48,23.10
2009,08,18,11,49,23.10
2009,08,18,11,50,23.10
2009,08,18,11,51,23.20
2009,08,18,11,52,23.20
2009,08,18,11,53,23.20
2009,08,18,11,54,23.30
2009,08,18,11,55,23.30
2009,08,18,11,56,23.30
2009,08,18,11,57,23.30
2009,08,18,11,58,23.30
2009,08,18,11,59,23.30
2009,08,18,12,00,23.30
2009,08,18,12,01,23.30
2009,08,18,12,02,23.30
2009,08,18,12,03,23.40
2009,08,18,12,04,23.50
2009,08,18,12,05,23.60
2009,08,18,12,06,23.70
2009,08,18,12,07,23.70
2009,08,18,12,08,23.70
2009,08,18,12,09,23.80
2009,08,18,12,10,23.90
2009,08,18,12,11,23.80
2009,08,18,12,12,23.80
2009,08,18,12,13,23.70
2009,08,18,12,14,23.70
2009,08,18,12,15,23.70
2009,08,18,12,16,23.70
2009,08,18,12,17,23.80
2009,08,18,12,18,23.80
2009,08,18,12,19,23.90
2009,08,18,12,20,23.90
2009,08,18,12,21,23.90
2009,08,18,12,22,24.00
2009,08,18,12,23,23.90
2009,08,18,12,24,23.80
2009,08,18,12,25,23.60
2009,08,18,12,26,23.50
2009,08,18,12,27,23.40
2009,08,18,12,28,23.40
2009,08,18,12,29,23.60
2009,08,18,12,30,23.70
2009,08,18,12,31,23.70
2009,08,18,12,32,23.70
2009,08,18,12,33,23.90
2009,08,18,12,34,24.00
2009,08,18,12,35,24.10
2009,08,18,12,36,24.10
2009,08,18,12,37,24.10
2009,08,18,12,38,24.10
2009,08,18,12,39,24.20
2009,08,18,12,40,24.30
2009,08,18,12,41,24.40
2009,08,18,12,42,24.50
2009,08,18,12,43,24.50
2009,08,18,12,44,24.50
2009,08,18,12,45,24.50
2009,08,18,12,46,24.40
2009,08,18,12,47,24.40
2009,08,18,12,48,24.30
2009,08,18,12,49,24.20
2009,08,18,12,50,24.10
2009,08,18,12,51,24.10
2009,08,18,12,52,24.10
2009,08,18,12,53,24.20
2009,08,18,12,54,24.30
2009,08,18,12,55,24.40
2009,08,18,12,56,24.50
2009,08,18,12,57,24.60
2009,08,18,12,58,24.60
2009,08,18,12,59,24.50
2009,08,18,13,00,24.40
2009,08,18,13,01,24.50
2009,08,18,13,02,24.60
2009,08,18,13,03,24.80
2009,08,18,13,04,24.90
2009,08,18,13,05,25.00
2009,08,18,13,06,25.20
2009,08,18,13,07,25.30
2009,08,18,13,08,25.30
2009,08,18,13,09,25.30
2009,08,18,13,10,25.30
2009,08,18,13,11,25.40
2009,08,18,13,12,25.50
2009,08,18,13,13,25.60
2009,08,18,13,14,25.50
2009,08,18,13,15,25.20
2009,08,18,13,16,25.00
2009,08,18,13,17,24.80
2009,08,18,13,18,24.50
2009,08,18,13,19,24.20
2009,08,18,13,20,24.00
2009,08,18,13,21,23.80
2009,08,18,13,22,23.70
2009,08,18,13,23,23.70
2009,08,18,13,24,23.70
2009,08,18,13,25,23.70
2009,08,18,13,26,23.70
2009,08,18,13,27,23.70
2009,08,18,13,28,23.70
2009,08,18,13,29,23.60
2009,08,18,13,30,23.70
2009,08,18,13,31,23.60
2009,08,18,13,32,23.50
2009,08,18,13,33,23.40
2009,08,18,13,34,23.40
2009,08,18,13,35,23.40
2009,08,18,13,36,23.40
2009,08,18,13,37,23.40
2009,08,18,13,38,23.40
2009,08,18,13,39,23.30
2009,08,18,13,40,23.40
2009,08,18,13,41,23.50
2009,08,18,13,42,23.40
2009,08,18,13,43,23.40
2009,08,18,13,44,23.40
2009,08,18,13,45,23.40
2009,08,18,13,46,23.40
2009,08,18,13,47,23.40
2009,08,18,13,48,23.40
2009,08,18,13,49,23.40
2009,08,18,13,50,23.50
2009,08,18,13,51,23.60
2009,08,18,13,52,23.70
2009,08,18,13,53,23.70
2009,08,18,13,54,23.60
2009,08,18,13,55,23.60
2009,08,18,13,56,23.60
2009,08,18,13,57,23.60
2009,08,18,13,58,23.60
2009,08,18,13,59,23.70
2009,08,18,14,00,23.80
2009,08,18,14,01,23.70
2009,08,18,14,02,23.70
2009,08,18,14,03,23.70
2009,08,18,14,04,23.80
2009,08,18,14,05,23.70
2009,08,18,14,06,23.70
2009,08,18,14,07,23.80
2009,08,18,14,08,24.00
2009,08,18,14,09,24.10
2009,08,18,14,10,24.20
2009,08,18,14,11,24.20
2009,08,18,14,12,24.20
2009,08,18,14,13,24.30
2009,08,18,14,14,24.30
2009,08,18,14,15,24.20
2009,08,18,14,16,24.20
2009,08,18,14,17,24.10
2009,08,18,14,18,24.20
2009,08,18,14,19,24.30
2009,08,18,14,20,24.40
2009,08,18,14,21,24.50
2009,08,18,14,22,24.50
2009,08,18,14,23,24.70
2009,08,18,14,24,24.80
2009,08,18,14,25,24.90
2009,08,18,14,26,25.10
2009,08,18,14,27,25.30
2009,08,18,14,28,25.50
2009,08,18,14,29,25.70
2009,08,18,14,30,25.70
2009,08,18,14,31,25.80
2009,08,18,14,32,25.90
2009,08,18,14,33,26.00
2009,08,18,14,34,25.90
2009,08,18,14,35,25.90
2009,08,18,14,36,25.90
2009,08,18,14,37,25.80
2009,08,18,14,38,25.80
2009,08,18,14,39,25.80
2009,08,18,14,40,25.90
2009,08,18,14,41,26.00
2009,08,18,14,42,26.20
2009,08,18,14,43,26.30
2009,08,18,14,44,26.40
2009,08,18,14,45,26.40
2009,08,18,14,46,26.50
2009,08,18,14,47,26.50
2009,08,18,14,48,26.40
2009,08,18,14,49,26.20
2009,08,18,14,50,25.90
2009,08,18,14,51,25.80
2009,08,18,14,52,25.70
2009,08,18,14,53,25.80
2009,08,18,14,54,25.90
2009,08,18,14,55,26.00
2009,08,18,14,56,26.10
2009,08,18,14,57,26.20
2009,08,18,14,58,26.20
2009,08,18,14,59,26.10
2009,08,18,15,00,26.10
2009,08,18,15,01,26.10
2009,08,18,15,02,26.10
2009,08,18,15,03,26.00
2009,08,18,15,04,25.90
2009,08,18,15,05,25.90
2009,08,18,15,06,25.90
2009,08,18,15,07,26.00
2009,08,18,15,08,26.10
2009,08,18,15,09,26.20
2009,08,18,15,10,26.20
2009,08,18,15,11,26.10
2009,08,18,15,12,26.00
2009,08,18,15,13,25.80
2009,08,18,15,14,25.80
2009,08,18,15,15,25.70
2009,08,18,15,16,25.60
2009,08,18,15,17,25.60
2009,08,18,15,18,25.60
2009,08,18,15,19,25.50
2009,08,18,15,20,25.40
2009,08,18,15,21,25.20
2009,08,18,15,22,25.10
2009,08,18,15,23,24.90
2009,08,18,15,24,24.80
2009,08,18,15,25,24.70
2009,08,18,15,26,24.70
2009,08,18,15,27,24.60
2009,08,18,15,28,24.60
2009,08,18,15,29,24.60
2009,08,18,15,30,24.40
2009,08,18,15,31,24.10
2009,08,18,15,32,24.10
2009,08,18,15,33,24.00
2009,08,18,15,34,24.00
2009,08,18,15,35,24.00
2009,08,18,15,36,23.90
2009,08,18,15,37,23.80
2009,08,18,15,38,23.90
2009,08,18,15,39,23.90
2009,08,18,15,40,23.80
2009,08,18,15,41,23.80
2009,08,18,15,42,23.70
2009,08,18,15,43,23.70
2009,08,18,15,44,23.60
2009,08,18,15,45,23.60
2009,08,18,15,46,23.60
2009,08,18,15,47,23.70
2009,08,18,15,48,23.70
2009,08,18,15,49,23.80
2009,08,18,15,50,23.90
2009,08,18,15,51,24.00
2009,08,18,15,52,23.90
2009,08,18,15,53,23.90
2009,08,18,15,54,23.70
2009,08,18,15,55,23.70
2009,08,18,15,56,23.60
2009,08,18,15,57,23.70
2009,08,18,15,58,23.70
2009,08,18,15,59,23.80
2009,08,18,16,00,23.90
2009,08,18,16,01,23.70
2009,08,18,16,02,23.60
2009,08,18,16,03,23.60
2009,08,18,16,04,23.60
2009,08,18,16,05,23.70
2009,08,18,16,06,23.70
2009,08,18,16,07,23.70
2009,08,18,16,08,23.70
2009,08,18,16,09,23.80
2009,08,18,16,10,23.70
2009,08,18,16,11,23.70
2009,08,18,16,12,23.60
2009,08,18,16,13,23.50
2009,08,18,16,14,23.30
2009,08,18,16,15,23.30
2009,08,18,16,16,23.30
2009,08,18,16,17,23.40
2009,08,18,16,18,23.40
2009,08,18,16,19,23.50
2009,08,18,16,20,23.60
2009,08,18,16,21,23.60
2009,08,18,16,22,23.60
2009,08,18,16,23,23.50
2009,08,18,16,24,23.40
2009,08,18,16,25,23.50
2009,08,18,16,26,23.60
2009,08,18,16,27,23.70
2009,08,18,16,28,23.70
2009,08,18,16,29,23.80
2009,08,18,16,30,23.90
2009,08,18,16,31,23.90
2009,08,18,16,32,24.10
2009,08,18,16,33,24.20
2009,08,18,16,34,24.30
2009,08,18,16,35,24.30
2009,08,18,16,36,24.20
2009,08,18,16,37,24.10
2009,08,18,16,38,24.10
2009,08,18,16,39,24.10
2009,08,18,16,40,24.00
2009,08,18,16,41,23.80
2009,08,18,16,42,23.80
2009,08,18,16,43,23.80
2009,08,18,16,44,23.80
2009,08,18,16,45,23.80
2009,08,18,16,46,23.70
2009,08,18,16,47,23.70
2009,08,18,16,48,23.70
2009,08,18,16,49,23.70
2009,08,18,16,50,23.80
2009,08,18,16,51,23.80
2009,08,18,16,52,23.90
2009,08,18,16,53,23.90
2009,08,18,16,54,23.90
2009,08,18,16,55,23.90
2009,08,18,16,56,24.10
2009,08,18,16,57,24.20
2009,08,18,16,58,24.20
2009,08,18,16,59,24.20
2009,08,18,17,00,24.20
2009,08,18,17,01,24.20
2009,08,18,17,02,24.20
2009,08,18,17,03,24.20
2009,08,18,17,04,24.20
2009,08,18,17,05,24.20
2009,08,18,17,06,24.20
2009,08,18,17,07,24.30
2009,08,18,17,08,24.40
2009,08,18,17,09,24.50
2009,08,18,17,10,24.60
2009,08,18,17,11,24.60
2009,08,18,17,12,24.70
2009,08,18,17,13,24.70
2009,08,18,17,14,24.70
2009,08,18,17,15,24.60
2009,08,18,17,16,24.60
2009,08,18,17,17,24.60
2009,08,18,17,18,24.50
2009,08,18,17,19,24.30